TimePST,TemperatureF,Dew PointF,Humidity,Sea Level PressureIn,VisibilityMPH,Wind Direction,Wind SpeedMPH,Gust SpeedMPH,PrecipitationIn,Events,Conditions,WindDirDegrees,DateUTC
12:54 AM,50.0,48.0,93,29.93,10.0,NE,5.8,-,N/A,,Clear,50,2012-11-25 08:54:00
1:54 AM,52.0,48.9,89,29.92,10.0,North,3.5,-,N/A,,Clear,360,2012-11-25 09:54:00
2:54 AM,48.0,46.9,96,29.92,10.0,NNW,3.5,-,N/A,,Clear,330,2012-11-25 10:54:00
3:54 AM,45.0,45.0,100,29.92,10.0,ENE,3.5,-,N/A,,Clear,60,2012-11-25 11:54:00
4:54 AM,45.0,43.0,93,29.92,10.0,Calm,Calm,-,N/A,,Clear,0,2012-11-25 12:54:00
5:54 AM,43.0,43.0,100,29.93,10.0,Calm,Calm,-,N/A,,Clear,0,2012-11-25 13:54:00
6:54 AM,45.0,43.0,93,29.94,10.0,ENE,3.5,-,N/A,,Clear,60,2012-11-25 14:54:00
7:54 AM,51.1,45.0,80,29.95,10.0,Calm,Calm,-,N/A,,Clear,0,2012-11-25 15:54:00
8:54 AM,55.9,50.0,80,29.96,10.0,SE,5.8,-,N/A,,Clear,140,2012-11-25 16:54:00
9:08 AM,57.2,57.2,100,29.95,6.0,SE,13.8,20.7,N/A,,Scattered Clouds,140,2012-11-25 17:08:00
9:54 AM,60.1,57.9,93,29.96,9.0,SE,15.0,-,N/A,,Clear,140,2012-11-25 17:54:00
10:06 AM,60.8,59.0,94,29.96,8.0,SE,15.0,21.9,N/A,,Partly Cloudy,140,2012-11-25 18:06:00
10:27 AM,60.8,57.2,88,29.96,7.0,SE,16.1,-,N/A,,Mostly Cloudy,140,2012-11-25 18:27:00
10:54 AM,60.1,59.0,96,29.95,6.0,SSE,17.3,26.5,N/A,,Overcast,150,2012-11-25 18:54:00
11:54 AM,60.1,57.9,93,29.93,4.0,SSE,20.7,33.4,N/A,,Overcast,150,2012-11-25 19:54:00
12:15 PM,60.8,57.2,88,29.92,4.0,SSE,18.4,27.6,N/A,,Overcast,160,2012-11-25 20:15:00
12:35 PM,62.6,57.2,82,29.91,4.0,SE,19.6,25.3,N/A,,Scattered Clouds,140,2012-11-25 20:35:00
12:54 PM,62.1,57.9,86,29.91,5.0,SSE,20.7,31.1,N/A,,Clear,150,2012-11-25 20:54:00
1:54 PM,64.0,59.0,84,29.89,10.0,SSE,18.4,26.5,N/A,,Clear,160,2012-11-25 21:54:00
2:54 PM,60.1,57.9,93,29.89,7.0,South,16.1,24.2,N/A,,Partly Cloudy,170,2012-11-25 22:54:00
3:02 PM,60.8,57.2,88,29.89,7.0,South,17.3,24.2,N/A,,Scattered Clouds,170,2012-11-25 23:02:00
3:36 PM,60.8,55.4,82,29.89,7.0,South,12.7,21.9,N/A,,Mostly Cloudy,180,2012-11-25 23:36:00
3:54 PM,61.5,55.6,81,29.90,7.0,South,11.5,-,N/A,,Mostly Cloudy,190,2012-11-25 23:54:00
4:54 PM,59.2,54.3,84,29.90,7.0,South,9.2,-,N/A,,Mostly Cloudy,170,2012-11-26 00:54:00
5:54 PM,59.5,54.7,84,29.91,7.0,South,6.9,-,N/A,,Overcast,170,2012-11-26 01:54:00
6:54 PM,57.9,57.0,97,29.93,5.0,SE,3.5,-,N/A,,Overcast,140,2012-11-26 02:54:00
7:54 PM,58.8,54.3,85,29.94,5.0,Calm,Calm,-,N/A,,Haze,0,2012-11-26 03:54:00
8:54 PM,58.5,54.1,86,29.95,4.0,Calm,Calm,-,N/A,,Overcast,0,2012-11-26 04:54:00
9:54 PM,59.0,54.3,84,29.96,5.0,Calm,Calm,-,N/A,,Haze,0,2012-11-26 05:54:00
10:54 PM,57.0,57.0,100,29.97,4.0,Calm,Calm,-,N/A,,Overcast,0,2012-11-26 06:54:00
11:54 PM,57.0,57.0,100,29.99,4.0,SSE,3.5,-,N/A,,Overcast,150,2012-11-26 07:54:00